Location: PSU-Greenbush Astrophysical Observatory
(37.5140°N, 94.9880°W)
Time: 22:22:24
(UTC-06:00)

Altair - Pass Details

Date: 27 January 2020
Orbit: 1502 x 1682 km, 47.2° (Epoch: 19 February)

Event Time Altitude Azimuth Distance (km) Brightness Sun altitude
Rises 06:45:33 0° 210° (SSW) 4,803 10.0 -8.7°
Reaches altitude 10° 06:48:46 10° 204° (SSW) 3,844 9.5 -8.1°
Maximum altitude 06:58:03 48° 134° (SE) 2,082 8.8 -6.3°
Drops below altitude 10° 07:07:33 10° 65° (ENE) 3,944 10.4 -4.5°
Sets 07:10:53 0° 60° (ENE) 4,938 10.8 -3.9°
